[[{"header":{"parameterUnit":"m.s-1","parameterCategory":2,"la1":30.2991,"la2":30.254,"lo1":-89.0895,"lo2":-89.0444,"dy":0.0017,"dx":0.0017,"nx":28,"ny":28,"refTime":"2025-12-31T03:00:00:Z","depth":"0","parameterNumber":2,"parameterNumberName":"U-component_of_CURRENTS"},"data":[0,0,0,0,0,0,0,0,0,0,0,0,0,0,0,0,0,0,0,0,0,0,0,0,0,0,0,0,0,0,0,0,0,0,0,0,0,0,0,0,0,0,0,0,0,0,0,0,0,0,0,0,0,0,0,0,0,0,-0.209,-0.2091,0,-0.2113,-0.2113,-0.2113,-0.2086,-0.2085,-0.2084,-0.2083,-0.2093,-0.2094,-0.2095,0,0,0,0,0,0,0,0,0,0,0,0,0,-0.2062,-0.2062,-0.209,-0.2091,-0.2091,-0.2113,-0.2113,-0.2114,-0.2086,-0.2085,-0.2084,-0.2083,-0.2092,-0.2094,-0.2095,0,0,0,0,0,0,0,0,0,0,0,0,0,-0.2078,-0.2062,-0.209,-0.208,-0.208,-0.2113,-0.2113,-0.2114,-0.2086,-0.2085,-0.2084,-0.2082,-0.2092,-0.2093,-0.2095,-0.2135,0,0,-0.21,-0.2101,0,0,0,0,0,0,0,0,-0.2077,-0.2079,-0.2081,-0.2081,-0.208,-0.2096,-0.2107,-0.212,-0.2087,-0.2083,-0.2083,-0.2082,-0.2094,-0.2095,-0.2102,-0.2135,-0.2136,-0.2101,-0.2102,-0.2102,-0.2103,0,0,0,0,0,0,0,-0.2076,-0.2078,-0.2099,-0.2082,-0.2081,-0.2088,-0.2088,-0.2109,-0.2096,-0.2084,-0.2082,-0.2086,-0.2093,-0.2101,-0.2102,-0.2136,-0.2101,-0.2102,-0.2103,-0.2104,-0.2243,-0.2245,0,0,0,0,0,0,-0.2074,-0.2077,-0.2098,-0.2099,-0.2076,-0.209,-0.209,-0.2092,-0.2096,-0.2095,-0.2087,-0.2084,-0.2098,-0.21,-0.2102,-0.2162,-0.2102,-0.2104,-0.2105,-0.224,-0.2243,-0.2246,0,0,0,0,0,0,-0.2073,-0.2075,-0.2097,-0.2089,-0.2092,-0.2092,-0.2094,-0.2093,-0.2092,-0.2099,-0.2097,-0.2086,-0.2097,-0.21,-0.2124,-0.2162,-0.2105,-0.2106,-0.2237,-0.2241,-0.2245,-0.2274,0,0,0,0,0,0,-0.2072,-0.2075,-0.2073,-0.2089,-0.2093,-0.2117,-0.2095,-0.2095,-0.2098,-0.2094,-0.2098,-0.2097,-0.2096,-0.2121,-0.2125,-0.2163,-0.2108,-0.2234,-0.2239,-0.2244,-0.227,-0.2279,-0.2286,0,0,0,0,0,-0.2071,-0.2077,-0.2073,-0.2075,-0.2091,-0.2117,-0.212,-0.2114,-0.2099,-0.2106,-0.211,-0.2097,-0.2157,-0.2124,-0.2129,-0.2168,-0.2231,-0.2237,-0.2243,-0.2266,-0.2277,-0.2286,0,0,0,0,0,0,-0.2065,-0.2076,-0.2071,-0.2079,-0.2096,-0.2113,-0.2118,-0.2116,-0.2126,-0.2119,-0.2117,-0.2119,-0.2165,-0.2166,-0.213,-0.2229,-0.2198,-0.2205,-0.2214,-0.2225,-0.2233,-0.2268,-0.2109,0,0,0,0,0,-0.2063,-0.2067,-0.2085,-0.209,-0.2099,-0.2108,-0.2116,-0.2117,-0.2129,-0.213,-0.2136,-0.2157,-0.2199,-0.2205,-0.2239,-0.2276,-0.2245,-0.2313,-0.2321,-0.2328,-0.2364,-0.2327,-0.2334,-0.2266,-0.2266,-0.2266,0,0,-0.2061,-0.2068,-0.2069,-0.2089,-0.2098,-0.2122,-0.2109,-0.2125,-0.2148,-0.2133,-0.216,-0.2186,-0.2219,-0.227,-0.2291,-0.2268,-0.2325,-0.2335,-0.234,-0.2374,-0.2334,-0.234,-0.2345,-0.227,-0.2269,-0.2269,0,0,-0.2065,-0.2067,-0.2073,-0.2093,-0.2112,-0.2128,-0.2133,-0.2154,-0.2164,-0.2194,-0.221,-0.2273,-0.2287,-0.2352,-0.2378,-0.246,-0.2376,-0.2448,-0.2505,-0.2467,-0.2471,-0.2475,-0.2403,-0.2401,-0.2441,-0.2441,-0.2441,0,-0.2061,-0.2071,-0.2082,-0.2101,-0.2119,-0.2131,-0.2154,-0.2179,-0.2206,-0.2236,-0.2204,-0.2315,-0.2348,-0.2453,-0.2487,-0.2484,-0.2406,-0.2453,-0.2473,-0.2476,-0.2479,-0.2405,-0.2402,-0.2443,-0.2443,-0.2443,-0.2443,0,-0.2073,-0.2086,-0.2096,-0.2122,-0.2148,-0.217,-0.2209,-0.2237,-0.2246,-0.2279,-0.2367,-0.2418,-0.2488,-0.2514,-0.2522,-0.2591,-0.2507,-0.2485,-0.2434,-0.2486,-0.2406,-0.2402,-0.2447,-0.2446,-0.2445,-0.2445,0,0,-0.2048,-0.2093,-0.2094,-0.2113,-0.216,-0.2184,-0.2239,-0.2303,-0.2344,-0.2389,-0.2448,-0.2571,-0.2599,-0.2638,-0.2666,-0.2658,-0.262,-0.257,-0.2567,-0.2476,-0.2467,-0.2385,-0.2371,-0.2545,-0.2546,-0.2547,-0.2386,0,-0.205,-0.2084,-0.2112,-0.2155,-0.2179,-0.2224,-0.2275,-0.2341,-0.2385,-0.2446,-0.2541,-0.2607,-0.264,-0.2664,-0.2677,-0.2643,-0.2614,-0.2663,-0.2454,-0.2449,-0.235,-0.2368,-0.2263,-0.2109,-0.2381,-0.238,-0.238,0,-0.2049,-0.2073,-0.211,-0.2174,-0.2189,-0.2222,-0.2308,-0.2353,-0.2461,-0.2495,-0.2593,-0.2639,-0.273,-0.2703,-0.2677,-0.2674,-0.2591,-0.2543,-0.2533,-0.2457,-0.2361,-0.2113,-0.2089,-0.2043,-0.2372,-0.2373,-0.2373,0,-0.202,-0.2074,-0.2101,-0.2122,-0.2198,-0.223,-0.2269,-0.237,-0.2415,-0.2522,-0.2551,-0.2655,-0.2674,-0.263,-0.2588,-0.2588,-0.2483,-0.2466,-0.2319,-0.2309,-0.2193,-0.2173,-0.2092,-0.2419,-0.2419,-0.2419,-0.242,0,-0.201,-0.203,-0.2087,-0.2103,-0.2142,-0.2204,-0.226,-0.232,-0.2409,-0.246,-0.2566,-0.2602,-0.2637,-0.2604,-0.2556,-0.2422,-0.245,-0.2343,-0.2275,-0.2197,-0.2181,-0.2115,-0.2141,-0.2413,-0.2415,-0.2416,-0.2417,0,-0.1969,-0.2007,-0.2038,-0.2107,-0.2127,-0.2149,-0.2224,-0.2265,-0.2347,-0.2406,-0.2432,-0.2524,-0.2475,-0.2485,-0.2395,-0.2351,-0.2194,-0.219,-0.209,-0.2017,-0.1856,-0.1888,-0.1785,-0.173,-0.2002,-0.2,-0.1997,0,-0.1948,-0.1958,-0.2016,-0.2026,-0.205,-0.2094,-0.2123,-0.2218,-0.2259,-0.2347,-0.2361,-0.2363,-0.2357,-0.2223,-0.2148,-0.2031,-0.2043,-0.1853,-0.1895,-0.1845,-0.1831,-0.187,-0.1835,-0.1723,-0.1719,-0.1715,-0.1712,0,-0.1898,-0.1915,-0.1937,-0.1955,-0.198,-0.2012,-0.2057,-0.2082,-0.2181,-0.2215,-0.2224,-0.2219,-0.2131,-0.1993,-0.187,-0.1793,-0.1803,-0.1773,-0.1747,-0.1647,-0.166,-0.1571,-0.1816,-0.168,-0.1684,-0.1686,-0.1688,-0.1689,-0.1845,-0.184,-0.1861,-0.1868,-0.1894,-0.1903,-0.1889,-0.1947,-0.197,-0.199,-0.2045,-0.1995,-0.1891,-0.1716,-0.1618,-0.1429,-0.1542,-0.1378,-0.1425,-0.1471,-0.143,-0.1604,-0.139,-0.1391,-0.1393,-0.1394,-0.1395,0,-0.1766,-0.1765,-0.177,-0.1773,-0.1749,-0.1797,-0.1819,-0.1785,-0.1756,-0.1803,-0.1786,-0.171,-0.1529,-0.143,-0.1235,-0.1122,-0.11,-0.1083,-0.1123,-0.1106,-0.1248,-0.1249,-0.0965,-0.0965,-0.0965,-0.0965,-0.0965,-0.0965,-0.1724,-0.1692,-0.169,-0.1618,-0.1612,-0.1539,-0.1519,-0.149,-0.1494,-0.1449,-0.1441,-0.148,-0.1434,-0.1301,-0.1065,-0.0964,-0.0935,-0.0888,-0.0932,-0.1046,-0.1078,-0.1109,-0.1115,-0.0807,-0.0807,-0.073,-0.0729,-0.0729]},{"header":{"parameterUnit":"m.s-1","parameterCategory":2,"la1":30.2991,"la2":30.254,"lo1":-89.0895,"lo2":-89.0444,"dy":0.0017,"dx":0.0017,"nx":28,"ny":28,"refTime":"2025-12-31T03:00:00:Z","depth":"0","parameterNumber":3,"parameterNumberName":"V-component_of_CURRENTS"},"data":[0,0,0,0,0,0,0,0,0,0,0,0,0,0,0,0,0,0,0,0,0,0,0,0,0,0,0,0,0,0,0,0,0,0,0,0,0,0,0,0,0,0,0,0,0,0,0,0,0,0,0,0,0,0,0,0,0,0,-0.0423,-0.0423,0,-0.0398,-0.0398,-0.0398,-0.0367,-0.0366,-0.0366,-0.0365,-0.0289,-0.0287,-0.0286,0,0,0,0,0,0,0,0,0,0,0,0,0,-0.0415,-0.0416,-0.0423,-0.0423,-0.0422,-0.0398,-0.0398,-0.0397,-0.0367,-0.0366,-0.0366,-0.0365,-0.029,-0.0288,-0.0286,0,0,0,0,0,0,0,0,0,0,0,0,0,-0.0407,-0.0416,-0.0423,-0.0405,-0.0403,-0.0398,-0.0398,-0.0397,-0.0367,-0.0366,-0.0365,-0.0365,-0.029,-0.0288,-0.0285,-0.0282,0,0,-0.0278,-0.0277,0,0,0,0,0,0,0,0,-0.0407,-0.0407,-0.0408,-0.0406,-0.0404,-0.0386,-0.0367,-0.0357,-0.0367,-0.0379,-0.0365,-0.0365,-0.0318,-0.0313,-0.0309,-0.0279,-0.0275,-0.0278,-0.0276,-0.0275,-0.0274,0,0,0,0,0,0,0,-0.0408,-0.0408,-0.0412,-0.0408,-0.0405,-0.0389,-0.0387,-0.0365,-0.035,-0.0378,-0.0376,-0.0375,-0.0316,-0.0311,-0.0307,-0.0274,-0.0278,-0.0275,-0.0274,-0.0273,-0.023,-0.0231,0,0,0,0,0,0,-0.0415,-0.0408,-0.0413,-0.0411,-0.0405,-0.0389,-0.0387,-0.0391,-0.0352,-0.0346,-0.0376,-0.0374,-0.0316,-0.031,-0.0304,-0.0302,-0.0275,-0.0273,-0.0271,-0.023,-0.023,-0.0231,0,0,0,0,0,0,-0.0415,-0.0416,-0.0414,-0.041,-0.0408,-0.0391,-0.0395,-0.0391,-0.0386,-0.0351,-0.0343,-0.0374,-0.0315,-0.0307,-0.0289,-0.0299,-0.0272,-0.0269,-0.0229,-0.023,-0.023,-0.0295,0,0,0,0,0,0,-0.0415,-0.0416,-0.0421,-0.0411,-0.0409,-0.0417,-0.0396,-0.0391,-0.0386,-0.0384,-0.0347,-0.0339,-0.0314,-0.0293,-0.0286,-0.0295,-0.0267,-0.0229,-0.023,-0.023,-0.0293,-0.0298,-0.0302,0,0,0,0,0,-0.0415,-0.0427,-0.0422,-0.0422,-0.0416,-0.0417,-0.0415,-0.0399,-0.0387,-0.039,-0.0365,-0.034,-0.0292,-0.0291,-0.0284,-0.0291,-0.0229,-0.0229,-0.023,-0.029,-0.0297,-0.0302,0,0,0,0,0,0,-0.0423,-0.0424,-0.0419,-0.0429,-0.0426,-0.0413,-0.0413,-0.0403,-0.0387,-0.0381,-0.0346,-0.0337,-0.0323,-0.0298,-0.0298,-0.028,-0.0256,-0.0255,-0.0304,-0.031,-0.0315,-0.0311,-0.0265,0,0,0,0,0,-0.0429,-0.0439,-0.0434,-0.0442,-0.0442,-0.0428,-0.0425,-0.0417,-0.0402,-0.0394,-0.0369,-0.0342,-0.0321,-0.0309,-0.0285,-0.0278,-0.0229,-0.0277,-0.0282,-0.0286,-0.0277,-0.015,-0.0141,-0.0233,-0.0233,-0.0233,0,0,-0.0434,-0.0436,-0.044,-0.0444,-0.0438,-0.0449,-0.0425,-0.0426,-0.0433,-0.0388,-0.0385,-0.0356,-0.0322,-0.0314,-0.0305,-0.0294,-0.0256,-0.0287,-0.0291,-0.0279,-0.0149,-0.014,-0.0131,-0.0234,-0.0234,-0.0234,0,0,-0.0454,-0.0451,-0.0467,-0.047,-0.0469,-0.0463,-0.0466,-0.0457,-0.0449,-0.0444,-0.0414,-0.0386,-0.0362,-0.0336,-0.032,-0.0335,-0.0283,-0.0337,-0.0359,-0.0237,-0.0227,-0.0218,-0.0238,-0.0229,-0.0341,-0.0341,-0.0341,0,-0.0459,-0.0481,-0.0471,-0.0488,-0.0496,-0.0474,-0.0495,-0.0487,-0.0472,-0.0467,-0.0449,-0.0386,-0.0367,-0.0337,-0.0357,-0.0344,-0.0306,-0.0343,-0.024,-0.0229,-0.0218,-0.024,-0.023,-0.0344,-0.0344,-0.0344,-0.0343,0,-0.0493,-0.0511,-0.052,-0.0538,-0.0543,-0.0557,-0.0549,-0.0549,-0.0533,-0.0518,-0.0479,-0.0429,-0.0393,-0.0387,-0.0384,-0.0317,-0.0333,-0.0258,-0.0223,-0.0213,-0.0238,-0.0227,-0.0349,-0.0348,-0.0347,-0.0346,0,0,-0.0508,-0.054,-0.0544,-0.0566,-0.0573,-0.0585,-0.0595,-0.0598,-0.06,-0.0554,-0.0531,-0.0492,-0.0451,-0.043,-0.0398,-0.0304,-0.0248,-0.0264,-0.0256,-0.0285,-0.0069,-0.0095,-0.0086,-0.0132,-0.0128,-0.0125,-0.0151,0,-0.054,-0.059,-0.0593,-0.0638,-0.0665,-0.0654,-0.0668,-0.0664,-0.0642,-0.0615,-0.0532,-0.0497,-0.0471,-0.0449,-0.0352,-0.0249,-0.0203,-0.0254,-0.0074,-0.0072,-0.009,-0.0065,-0.0064,-0.0083,-0.0139,-0.0137,-0.0136,0,-0.0576,-0.0607,-0.066,-0.0701,-0.071,-0.0729,-0.0743,-0.075,-0.0706,-0.0684,-0.0613,-0.0548,-0.0454,-0.0399,-0.0217,-0.0244,-0.0184,-0.0099,-0.0095,-0.0074,-0.007,-0.0082,-0.0059,0.0053,-0.0117,-0.0119,-0.012,0,-0.0606,-0.0655,-0.0702,-0.0716,-0.0753,-0.077,-0.0782,-0.0769,-0.0776,-0.0712,-0.0691,-0.0558,-0.0487,-0.0322,-0.0212,-0.019,-0.0004,0.0056,0.0066,0.0058,0.0119,0.0112,0.0287,0.0187,0.0187,0.0187,0.0187,0,-0.0647,-0.0685,-0.072,-0.0749,-0.0802,-0.0806,-0.084,-0.0839,-0.0813,-0.0815,-0.0721,-0.0674,-0.0442,-0.0328,-0.0213,-0.0062,-0.001,0.006,0.0088,0.0081,0.0072,0.0221,0.0283,0.0186,0.0186,0.0186,0.0186,0,-0.068,-0.0702,-0.0762,-0.0807,-0.0822,-0.0857,-0.0892,-0.0912,-0.0884,-0.0872,-0.0849,-0.0735,-0.058,-0.0416,-0.0178,-0.0083,0.0143,0.0095,-0.0013,0.0006,0.0161,0.0218,0.0416,0.0476,0.0137,0.0137,0.0137,0,-0.0704,-0.0737,-0.0805,-0.0844,-0.0867,-0.0912,-0.0947,-0.0948,-0.0962,-0.0915,-0.0906,-0.0775,-0.0694,-0.0415,-0.0193,-0.0013,0.0107,0.0073,0.015,0.0173,0.0259,0.0302,0.0342,0.0144,0.0144,0.0144,0.0144,0,-0.0747,-0.0768,-0.0818,-0.0897,-0.0946,-0.1001,-0.104,-0.1063,-0.1055,-0.1037,-0.0991,-0.0918,-0.0675,-0.0436,-0.0213,-0.0086,0.0176,0.0076,0.02,0.0362,0.0331,0.0398,0.0046,0.0143,0.0143,0.0143,0.0143,0.0143,-0.0772,-0.0818,-0.088,-0.0953,-0.1015,-0.1079,-0.1115,-0.1141,-0.116,-0.113,-0.1057,-0.0938,-0.0626,-0.0277,-0.0142,0.0154,0.0183,0.0272,0.0344,0.0387,0.0466,0.0032,0.0122,0.0122,0.0122,0.0122,0.0122,0,-0.0803,-0.0857,-0.0932,-0.1022,-0.1094,-0.1111,-0.117,-0.1187,-0.1204,-0.1157,-0.1098,-0.0796,-0.0485,-0.0176,0.0233,0.0413,0.0481,0.0512,0.0611,0.0648,0.0354,0.0377,0.041,0.041,0.041,0.0409,0.0409,0.0409,-0.0823,-0.0898,-0.0941,-0.1065,-0.1127,-0.1198,-0.1226,-0.1238,-0.1204,-0.11,-0.0948,-0.0835,-0.0392,0.027,0.0658,0.0704,0.0877,0.0868,0.0961,0.0786,0.077,0.0755,0.0794,0.0913,0.0914,0.1232,0.1236,0.1238]}],[{"header":{"parameterUnit":"m.s-1","parameterCategory":2,"la1":30.2991,"la2":30.254,"lo1":-89.0895,"lo2":-89.0444,"dy":0.0017,"dx":0.0017,"nx":28,"ny":28,"refTime":"2025-12-31T03:00:00:Z","depth":"2","parameterNumber":2,"parameterNumberName":"U-component_of_CURRENTS"},"data":[0,0,0,0,0,0,0,0,0,0,0,0,0,0,0,0,0,0,0,0,0,0,0,0,0,0,0,0,0,0,0,0,0,0,0,0,0,0,0,0,0,0,0,0,0,0,0,0,0,0,0,0,0,0,0,0,0,0,-0.2049,-0.205,0,-0.2074,-0.2074,-0.2074,-0.2051,-0.205,-0.2049,-0.2049,-0.2056,-0.2057,-0.2058,0,0,0,0,0,0,0,0,0,0,0,0,0,-0.2015,-0.2015,-0.2049,-0.205,-0.205,-0.2074,-0.2074,-0.2074,-0.2051,-0.205,-0.2049,-0.2048,-0.2056,-0.2057,-0.2059,0,0,0,0,0,0,0,0,0,0,0,0,0,-0.2033,-0.2015,-0.2049,-0.2042,-0.2042,-0.2074,-0.2074,-0.2074,-0.2052,-0.205,-0.2049,-0.2048,-0.2056,-0.2057,-0.2059,-0.2094,0,0,-0.2063,-0.2064,0,0,0,0,0,0,0,0,-0.2032,-0.2034,-0.2043,-0.2043,-0.2042,-0.2059,-0.2065,-0.208,-0.2052,-0.2047,-0.2049,-0.2047,-0.2057,-0.2058,-0.2065,-0.2094,-0.2095,-0.2063,-0.2064,-0.2065,-0.2065,0,0,0,0,0,0,0,-0.203,-0.2033,-0.2058,-0.2043,-0.2043,-0.2048,-0.2049,-0.2068,-0.2058,-0.2047,-0.2046,-0.205,-0.2056,-0.2064,-0.2065,-0.2095,-0.2063,-0.2065,-0.2066,-0.2066,-0.2189,-0.2191,0,0,0,0,0,0,-0.2029,-0.2032,-0.2058,-0.2059,-0.2034,-0.205,-0.2051,-0.2054,-0.2058,-0.2058,-0.2051,-0.2049,-0.2062,-0.2063,-0.2065,-0.2119,-0.2065,-0.2066,-0.2067,-0.2187,-0.219,-0.2192,0,0,0,0,0,0,-0.2028,-0.2031,-0.2057,-0.2046,-0.205,-0.2052,-0.2056,-0.2055,-0.2057,-0.2062,-0.206,-0.2052,-0.2061,-0.2063,-0.2086,-0.2118,-0.2067,-0.2068,-0.2184,-0.2188,-0.2191,-0.2219,0,0,0,0,0,0,-0.2027,-0.203,-0.203,-0.2046,-0.2051,-0.2077,-0.2057,-0.2057,-0.2062,-0.2059,-0.2063,-0.2062,-0.206,-0.2084,-0.2088,-0.2119,-0.207,-0.2181,-0.2186,-0.219,-0.2215,-0.2223,-0.2229,0,0,0,0,0,-0.2025,-0.2034,-0.203,-0.2033,-0.2051,-0.2077,-0.208,-0.2077,-0.2063,-0.2071,-0.2075,-0.2062,-0.2115,-0.2087,-0.209,-0.2123,-0.2179,-0.2184,-0.219,-0.2211,-0.2221,-0.2229,0,0,0,0,0,0,-0.2019,-0.2033,-0.2029,-0.204,-0.2057,-0.2074,-0.208,-0.2079,-0.209,-0.2084,-0.2081,-0.2083,-0.2123,-0.2124,-0.2093,-0.2177,-0.215,-0.2156,-0.2165,-0.2175,-0.2182,-0.2218,-0.2071,0,0,0,0,0,-0.2019,-0.2025,-0.2044,-0.2052,-0.2061,-0.207,-0.2079,-0.208,-0.2093,-0.2095,-0.21,-0.2118,-0.2153,-0.2159,-0.2188,-0.2221,-0.2198,-0.2252,-0.226,-0.2265,-0.2301,-0.2288,-0.2296,-0.221,-0.221,-0.221,0,0,-0.2018,-0.2026,-0.2029,-0.205,-0.206,-0.2083,-0.2072,-0.2089,-0.211,-0.2096,-0.2123,-0.2144,-0.2171,-0.2216,-0.2234,-0.2214,-0.2269,-0.2272,-0.2277,-0.231,-0.2294,-0.2302,-0.2309,-0.2213,-0.2213,-0.2212,0,0,-0.2024,-0.2029,-0.2036,-0.2055,-0.2075,-0.209,-0.2096,-0.2117,-0.2127,-0.2156,-0.2168,-0.2227,-0.2235,-0.2295,-0.2317,-0.2391,-0.2315,-0.2372,-0.2428,-0.2413,-0.2419,-0.2425,-0.2356,-0.2355,-0.2367,-0.2367,-0.2367,0,-0.202,-0.2033,-0.2045,-0.2064,-0.208,-0.2094,-0.2115,-0.2139,-0.2165,-0.2188,-0.2166,-0.2263,-0.2296,-0.2387,-0.2417,-0.2413,-0.2344,-0.2381,-0.2419,-0.2424,-0.2429,-0.2358,-0.2357,-0.2369,-0.2369,-0.2369,-0.2369,0,-0.2033,-0.2047,-0.2058,-0.2084,-0.2108,-0.213,-0.2166,-0.2192,-0.2201,-0.2227,-0.2305,-0.2362,-0.2423,-0.2446,-0.2453,-0.2524,-0.2439,-0.2428,-0.2385,-0.2439,-0.236,-0.2358,-0.2372,-0.2371,-0.2371,-0.237,0,0,-0.2012,-0.2056,-0.2058,-0.2074,-0.212,-0.2141,-0.219,-0.2243,-0.2274,-0.2323,-0.2374,-0.2491,-0.2518,-0.2554,-0.2582,-0.2593,-0.2575,-0.2515,-0.2513,-0.2428,-0.246,-0.236,-0.2347,-0.2519,-0.252,-0.2521,-0.237,0,-0.2014,-0.2047,-0.2074,-0.2112,-0.2134,-0.2175,-0.2219,-0.2273,-0.2309,-0.2362,-0.2457,-0.2518,-0.2554,-0.2581,-0.261,-0.2599,-0.2577,-0.2613,-0.2441,-0.2437,-0.2326,-0.2347,-0.2197,-0.2047,-0.2368,-0.2368,-0.2367,0,-0.2013,-0.2037,-0.2071,-0.2125,-0.2139,-0.2168,-0.2237,-0.2278,-0.2368,-0.2396,-0.2488,-0.2533,-0.264,-0.2625,-0.2638,-0.2628,-0.2557,-0.2528,-0.2519,-0.243,-0.2336,-0.2059,-0.203,-0.2364,-0.2364,-0.2364,-0.2364,0,-0.1984,-0.2034,-0.2058,-0.2077,-0.2144,-0.2171,-0.2206,-0.2288,-0.2323,-0.242,-0.2445,-0.2557,-0.2595,-0.2578,-0.2559,-0.2564,-0.2495,-0.2494,-0.2333,-0.2321,-0.2174,-0.2149,-0.2463,-0.2463,-0.2464,-0.2464,-0.2464,0,-0.1974,-0.1991,-0.2044,-0.2057,-0.2089,-0.2146,-0.219,-0.2241,-0.2318,-0.2356,-0.2459,-0.2495,-0.2571,-0.2553,-0.2526,-0.2419,-0.2463,-0.2354,-0.2293,-0.2174,-0.2152,-0.2433,-0.2432,-0.2458,-0.246,-0.2461,-0.2462,0,-0.1931,-0.1969,-0.1995,-0.2056,-0.2073,-0.2092,-0.2156,-0.2186,-0.226,-0.2309,-0.2338,-0.2428,-0.2407,-0.2432,-0.2387,-0.235,-0.228,-0.2208,-0.2045,-0.197,-0.2114,-0.2116,-0.2035,-0.2031,-0.2027,-0.2024,-0.2021,0,-0.191,-0.192,-0.1971,-0.1978,-0.2001,-0.2038,-0.206,-0.2145,-0.2174,-0.2254,-0.2264,-0.228,-0.2273,-0.2181,-0.2122,-0.2025,-0.212,-0.1811,-0.1858,-0.213,-0.2078,-0.2086,-0.2094,-0.164,-0.1634,-0.163,-0.1626,0,-0.1861,-0.1877,-0.1896,-0.1909,-0.1928,-0.1952,-0.1989,-0.2005,-0.2093,-0.212,-0.2126,-0.2124,-0.2053,-0.1914,-0.18,-0.1734,-0.184,-0.1715,-0.2025,-0.179,-0.1751,-0.1703,-0.1724,-0.1586,-0.159,-0.1593,-0.1595,-0.1597,-0.181,-0.1804,-0.1821,-0.1823,-0.1844,-0.1844,-0.1824,-0.187,-0.1882,-0.1887,-0.1943,-0.1871,-0.1842,-0.1615,-0.1488,-0.1394,-0.1542,-0.1483,-0.15,-0.1521,-0.1521,-0.148,-0.126,-0.1262,-0.1264,-0.1265,-0.1267,0,-0.1733,-0.173,-0.173,-0.1727,-0.1699,-0.1744,-0.1752,-0.1709,-0.1671,-0.1694,-0.1671,-0.1484,-0.1357,-0.1321,-0.1112,-0.1053,-0.1069,-0.1002,-0.1041,-0.1081,-0.1117,-0.1101,-0.0725,-0.0724,-0.0722,-0.072,0,0,-0.1692,-0.1658,-0.1652,-0.1575,-0.1566,-0.1489,-0.1464,-0.142,-0.1404,-0.1331,-0.1283,-0.1354,-0.1332,-0.1065,-0.0969,-0.082,-0.0951,-0.0767,-0.1206,-0.1298,-0.1332,-0.1397,-0.1416,0,0,0,0,0]},{"header":{"parameterUnit":"m.s-1","parameterCategory":2,"la1":30.2991,"la2":30.254,"lo1":-89.0895,"lo2":-89.0444,"dy":0.0017,"dx":0.0017,"nx":28,"ny":28,"refTime":"2025-12-31T03:00:00:Z","depth":"2","parameterNumber":3,"parameterNumberName":"V-component_of_CURRENTS"},"data":[0,0,0,0,0,0,0,0,0,0,0,0,0,0,0,0,0,0,0,0,0,0,0,0,0,0,0,0,0,0,0,0,0,0,0,0,0,0,0,0,0,0,0,0,0,0,0,0,0,0,0,0,0,0,0,0,0,0,-0.0283,-0.0282,0,-0.0257,-0.0257,-0.0257,-0.0228,-0.0228,-0.0228,-0.0227,-0.0157,-0.0156,-0.0154,0,0,0,0,0,0,0,0,0,0,0,0,0,-0.0277,-0.0277,-0.0283,-0.0282,-0.0282,-0.0257,-0.0257,-0.0257,-0.0228,-0.0228,-0.0228,-0.0227,-0.0158,-0.0156,-0.0154,0,0,0,0,0,0,0,0,0,0,0,0,0,-0.0267,-0.0277,-0.0283,-0.0266,-0.0264,-0.0258,-0.0257,-0.0256,-0.0228,-0.0228,-0.0227,-0.0227,-0.0158,-0.0156,-0.0154,-0.0149,0,0,-0.0147,-0.0146,0,0,0,0,0,0,0,0,-0.0268,-0.0267,-0.0269,-0.0267,-0.0265,-0.0246,-0.0229,-0.0219,-0.0229,-0.0241,-0.0227,-0.0227,-0.0184,-0.018,-0.0175,-0.0146,-0.0143,-0.0146,-0.0145,-0.0144,-0.0143,0,0,0,0,0,0,0,-0.0268,-0.0268,-0.0272,-0.0268,-0.0266,-0.0249,-0.0248,-0.0227,-0.0214,-0.024,-0.0238,-0.0237,-0.0182,-0.0177,-0.0173,-0.0142,-0.0147,-0.0144,-0.0143,-0.0142,-0.0112,-0.0113,0,0,0,0,0,0,-0.0276,-0.0269,-0.0272,-0.0271,-0.0266,-0.025,-0.0248,-0.0252,-0.0215,-0.021,-0.0237,-0.0236,-0.0182,-0.0176,-0.017,-0.0179,-0.0144,-0.0142,-0.0141,-0.0112,-0.0112,-0.0113,0,0,0,0,0,0,-0.0276,-0.0277,-0.0273,-0.027,-0.0268,-0.0251,-0.0255,-0.0252,-0.0248,-0.0214,-0.0207,-0.0237,-0.0181,-0.0174,-0.0159,-0.0175,-0.0141,-0.0139,-0.0111,-0.0112,-0.0113,-0.0185,0,0,0,0,0,0,-0.0276,-0.0277,-0.0282,-0.0271,-0.0269,-0.0277,-0.0256,-0.0252,-0.0248,-0.0246,-0.0211,-0.0204,-0.018,-0.0163,-0.0157,-0.0171,-0.0137,-0.011,-0.0111,-0.0113,-0.0182,-0.0188,-0.0193,0,0,0,0,0,-0.0276,-0.0288,-0.0283,-0.0283,-0.0277,-0.0278,-0.0276,-0.026,-0.0249,-0.0253,-0.023,-0.0205,-0.0166,-0.0162,-0.0155,-0.0168,-0.011,-0.0111,-0.0112,-0.0179,-0.0187,-0.0193,0,0,0,0,0,0,-0.0287,-0.0286,-0.028,-0.0291,-0.0287,-0.0273,-0.0275,-0.0265,-0.0251,-0.0246,-0.0212,-0.0204,-0.0198,-0.0173,-0.0169,-0.0163,-0.0134,-0.0134,-0.0187,-0.0194,-0.02,-0.0201,-0.0135,0,0,0,0,0,-0.0293,-0.0302,-0.0296,-0.0304,-0.0304,-0.029,-0.0288,-0.028,-0.0266,-0.026,-0.0237,-0.0213,-0.0198,-0.0188,-0.0168,-0.0164,-0.0116,-0.0168,-0.0174,-0.0179,-0.0176,-0.0063,-0.0057,-0.0118,-0.0118,-0.0118,0,0,-0.0299,-0.03,-0.0304,-0.0307,-0.0301,-0.0314,-0.0288,-0.029,-0.0301,-0.0254,-0.0257,-0.0232,-0.0201,-0.02,-0.0195,-0.018,-0.0155,-0.0181,-0.0186,-0.0179,-0.0063,-0.0057,-0.0051,-0.0119,-0.0118,-0.0118,0,0,-0.0321,-0.0317,-0.0334,-0.0337,-0.0336,-0.0331,-0.0335,-0.0325,-0.032,-0.0319,-0.0292,-0.0274,-0.0251,-0.0234,-0.0222,-0.0247,-0.0188,-0.0245,-0.0276,-0.0167,-0.0161,-0.0154,-0.0159,-0.0152,-0.0248,-0.0249,-0.0249,0,-0.0329,-0.0351,-0.0338,-0.0357,-0.0366,-0.0343,-0.0367,-0.0361,-0.0349,-0.0349,-0.0328,-0.0283,-0.0266,-0.0254,-0.0274,-0.026,-0.0215,-0.0254,-0.0173,-0.0164,-0.0156,-0.0162,-0.0153,-0.0252,-0.0252,-0.0251,-0.0251,0,-0.0365,-0.0384,-0.0394,-0.0413,-0.042,-0.0436,-0.0431,-0.0434,-0.042,-0.041,-0.0387,-0.0345,-0.0319,-0.0315,-0.0308,-0.026,-0.0259,-0.0191,-0.0152,-0.0154,-0.0162,-0.0151,-0.0257,-0.0256,-0.0255,-0.0254,0,0,-0.0383,-0.0415,-0.042,-0.0444,-0.0454,-0.0467,-0.0485,-0.0496,-0.0506,-0.0467,-0.046,-0.0434,-0.0397,-0.0381,-0.035,-0.0266,-0.0214,-0.0215,-0.0208,-0.022,-0.004,-0.0059,-0.0049,-0.0106,-0.0103,-0.01,-0.0097,0,-0.0418,-0.0471,-0.0475,-0.0526,-0.0555,-0.0547,-0.0567,-0.0571,-0.0556,-0.0542,-0.0477,-0.0455,-0.0426,-0.0408,-0.0324,-0.0215,-0.0176,-0.0226,-0.0037,-0.0034,-0.0044,-0.0032,-0.0024,-0.0017,-0.0086,-0.0084,-0.0083,0,-0.0457,-0.0489,-0.0547,-0.0593,-0.0604,-0.0627,-0.0653,-0.0666,-0.0641,-0.0625,-0.0574,-0.0519,-0.0438,-0.0385,-0.0207,-0.0229,-0.0165,-0.0078,-0.0073,-0.0046,-0.0028,-0.001,0.0005,-0.0064,-0.0065,-0.0067,-0.0068,0,-0.0489,-0.0542,-0.0593,-0.0608,-0.0651,-0.0673,-0.0689,-0.069,-0.0704,-0.0663,-0.065,-0.0538,-0.0473,-0.0316,-0.0196,-0.0175,0.001,0.0068,0.0089,0.0083,0.0148,0.0145,0.0182,0.0182,0.0182,0.0182,0.0182,0,-0.0532,-0.0573,-0.0611,-0.0642,-0.0701,-0.0709,-0.0753,-0.076,-0.0749,-0.076,-0.0687,-0.065,-0.0432,-0.032,-0.0199,-0.004,0.0002,0.0079,0.0112,0.011,0.0104,0.0131,0.0125,0.0182,0.0182,0.0182,0.0182,0,-0.0565,-0.0589,-0.0651,-0.0703,-0.072,-0.076,-0.0802,-0.0829,-0.0813,-0.0814,-0.0798,-0.0702,-0.0544,-0.0388,-0.0153,-0.0058,0.0104,0.0124,0.0038,0.0063,0.0089,0.0079,0.0186,0.0186,0.0186,0.0186,0.0186,0,-0.0588,-0.0622,-0.0695,-0.0735,-0.0761,-0.0812,-0.085,-0.0861,-0.088,-0.0849,-0.0845,-0.0723,-0.0641,-0.0358,-0.0143,0.0045,0.0061,0.0135,0.0197,0.0082,0.0104,0.0093,0.0084,0.0209,0.0209,0.021,0.021,0,-0.0631,-0.0652,-0.0704,-0.0785,-0.0837,-0.0895,-0.0938,-0.0963,-0.0965,-0.0952,-0.0909,-0.0837,-0.0597,-0.0352,-0.013,-0.0005,0.0126,0.0144,0.0112,0.0206,0.0107,0.0126,0.0116,0.0211,0.0211,0.0211,0.0211,0.0211,-0.0654,-0.07,-0.0763,-0.0838,-0.0901,-0.0964,-0.1,-0.1026,-0.1045,-0.1012,-0.0946,-0.0808,-0.0599,-0.0239,-0.006,0.0128,0.0124,0.0209,0.0208,0.0207,0.0209,0.0117,0.0215,0.0215,0.0215,0.0215,0.0215,0,-0.0684,-0.0737,-0.0812,-0.0902,-0.0971,-0.0993,-0.1052,-0.1059,-0.1068,-0.1005,-0.0938,-0.0688,-0.0444,-0.0221,0.0072,0.0223,0.0243,0.0265,0.0272,0.0269,0.0266,0.0272,0.0295,0.0295,0.0296,0.0297,0,0,-0.0703,-0.0776,-0.0817,-0.0935,-0.0997,-0.1063,-0.109,-0.1083,-0.1033,-0.0956,-0.0839,-0.0704,-0.0434,-0.0209,-0.0007,0.0158,0.0177,0.0182,0.0102,0.0084,0.008,0.0219,0.0221,0,0,0,0,0]}],[{"header":{"parameterUnit":"m.s-1","parameterCategory":2,"la1":30.2991,"la2":30.254,"lo1":-89.0895,"lo2":-89.0444,"dy":0.0017,"dx":0.0017,"nx":28,"ny":28,"refTime":"2025-12-31T03:00:00:Z","depth":"4","parameterNumber":2,"parameterNumberName":"U-component_of_CURRENTS"},"data":[0,0,0,0,0,0,0,0,0,0,0,0,0,0,0,0,0,0,0,0,0,0,0,0,0,0,0,0,0,0,0,0,0,0,0,0,0,0,0,0,0,0,0,0,0,0,0,0,0,0,0,0,0,0,0,0,0,0,-0.1549,-0.1549,0,-0.1606,-0.1606,-0.1607,-0.1636,-0.1636,-0.1636,-0.1636,-0.1688,-0.1689,-0.1691,0,0,0,0,0,0,0,0,0,0,0,0,0,-0.147,-0.1471,-0.1548,-0.1549,-0.155,-0.1606,-0.1606,-0.1607,-0.1636,-0.1636,-0.1636,-0.1636,-0.1688,-0.1689,-0.1691,0,0,0,0,0,0,0,0,0,0,0,0,0,-0.1512,-0.1471,-0.1548,-0.1572,-0.1574,-0.1606,-0.1607,-0.1607,-0.1636,-0.1636,-0.1636,-0.1636,-0.1687,-0.1689,-0.1691,-0.17,0,0,-0.1697,-0.1698,0,0,0,0,0,0,0,0,-0.151,-0.1515,-0.1567,-0.157,-0.1573,-0.1615,-0.1598,-0.1638,-0.1636,-0.1611,-0.1636,-0.1636,-0.1664,-0.1667,-0.1677,-0.1703,-0.1705,-0.1697,-0.1698,-0.1699,-0.17,0,0,0,0,0,0,0,-0.1507,-0.1513,-0.157,-0.1568,-0.1572,-0.1582,-0.1588,-0.1606,-0.1635,-0.1614,-0.1616,-0.1624,-0.1665,-0.1675,-0.1678,-0.1706,-0.1697,-0.1699,-0.17,-0.1701,-0.1809,-0.1811,0,0,0,0,0,0,-0.1501,-0.151,-0.1568,-0.1572,-0.1542,-0.1583,-0.159,-0.16,-0.1635,-0.1641,-0.1624,-0.1625,-0.1671,-0.1676,-0.168,-0.1738,-0.1699,-0.1701,-0.1702,-0.1808,-0.181,-0.1811,0,0,0,0,0,0,-0.15,-0.1506,-0.1566,-0.1543,-0.1551,-0.1584,-0.1596,-0.1602,-0.1633,-0.1643,-0.1649,-0.1652,-0.1672,-0.1677,-0.1721,-0.1738,-0.1702,-0.1704,-0.1806,-0.1808,-0.1811,-0.1825,0,0,0,0,0,0,-0.1497,-0.1505,-0.1523,-0.1543,-0.1552,-0.16,-0.1596,-0.1603,-0.1637,-0.1639,-0.1669,-0.1672,-0.1672,-0.1718,-0.1723,-0.174,-0.1705,-0.1803,-0.1807,-0.181,-0.1822,-0.1827,-0.1832,0,0,0,0,0,-0.1494,-0.1515,-0.1524,-0.1532,-0.1572,-0.1602,-0.1608,-0.163,-0.1638,-0.1658,-0.1682,-0.1673,-0.1742,-0.1721,-0.1726,-0.1745,-0.1802,-0.1806,-0.1809,-0.182,-0.1826,-0.1832,0,0,0,0,0,0,-0.1493,-0.1521,-0.1531,-0.156,-0.1587,-0.1607,-0.1632,-0.1645,-0.1679,-0.1689,-0.1694,-0.17,-0.1747,-0.1751,-0.1728,-0.1789,-0.1771,-0.1776,-0.1777,-0.1783,-0.1788,-0.1776,-0.1707,0,0,0,0,0,-0.15,-0.1524,-0.1549,-0.1576,-0.1591,-0.1616,-0.1635,-0.1651,-0.1678,-0.1694,-0.1716,-0.1741,-0.1764,-0.1778,-0.1803,-0.1834,-0.1816,-0.1851,-0.1856,-0.186,-0.1857,-0.1816,-0.1816,-0.1824,-0.1824,-0.1824,0,0,-0.1508,-0.1527,-0.1542,-0.1578,-0.1601,-0.1628,-0.1629,-0.1666,-0.1695,-0.1694,-0.1749,-0.1766,-0.178,-0.1817,-0.1837,-0.1822,-0.186,-0.1865,-0.1868,-0.1863,-0.182,-0.1819,-0.1817,-0.1827,-0.1826,-0.1826,0,0,-0.1525,-0.1554,-0.1575,-0.16,-0.1638,-0.1655,-0.1671,-0.1707,-0.1733,-0.178,-0.1787,-0.1808,-0.1858,-0.1857,-0.1863,-0.1912,-0.1893,-0.1936,-0.1942,-0.1903,-0.19,-0.1898,-0.1911,-0.1909,-0.193,-0.193,-0.193,0,-0.1535,-0.1562,-0.1588,-0.1613,-0.1637,-0.1669,-0.1696,-0.1728,-0.1777,-0.1791,-0.1805,-0.1844,-0.1868,-0.1872,-0.1906,-0.1918,-0.1914,-0.1912,-0.1904,-0.1901,-0.1899,-0.1912,-0.191,-0.1932,-0.1931,-0.1931,-0.1931,0,-0.1555,-0.1589,-0.1607,-0.1648,-0.1678,-0.1711,-0.175,-0.179,-0.1823,-0.1839,-0.1868,-0.1881,-0.189,-0.1912,-0.1934,-0.1932,-0.1946,-0.1916,-0.1877,-0.1898,-0.1913,-0.191,-0.1933,-0.1933,-0.1932,-0.1932,0,0,-0.1541,-0.1607,-0.1616,-0.1639,-0.1699,-0.1721,-0.1778,-0.1818,-0.1837,-0.1874,-0.187,-0.1923,-0.1912,-0.192,-0.1925,-0.1908,-0.1917,-0.1921,-0.1918,-0.1915,-0.1872,-0.1754,-0.174,-0.188,-0.1879,-0.1878,-0.1903,0,-0.155,-0.1596,-0.1631,-0.1683,-0.1708,-0.1757,-0.1799,-0.1842,-0.1873,-0.1882,-0.1875,-0.1886,-0.1917,-0.1915,-0.1902,-0.1915,-0.1907,-0.1916,-0.187,-0.187,-0.1743,-0.173,-0.1875,-0.1901,-0.19,-0.19,-0.1899,0,-0.1548,-0.1581,-0.1631,-0.1691,-0.1707,-0.1746,-0.18,-0.1841,-0.1865,-0.1882,-0.1869,-0.1864,-0.1866,-0.1866,-0.1869,-0.1877,-0.1888,-0.1887,-0.1886,-0.176,-0.1743,-0.187,-0.1895,-0.1895,-0.1895,-0.1896,-0.1896,0,-0.1505,-0.1576,-0.1616,-0.164,-0.1715,-0.1749,-0.1791,-0.184,-0.186,-0.187,-0.1863,-0.1848,-0.1835,-0.1828,-0.186,-0.1867,-0.1843,-0.1836,-0.1736,-0.1731,-0.1826,-0.1827,-0.1812,-0.1812,-0.1812,-0.1812,-0.1812,0,-0.1481,-0.1515,-0.1604,-0.1624,-0.1665,-0.1729,-0.1764,-0.1805,-0.1828,-0.1824,-0.1851,-0.1818,-0.1825,-0.1813,-0.1838,-0.1779,-0.1821,-0.173,-0.1707,-0.1841,-0.1844,-0.1826,-0.1828,-0.1813,-0.1812,-0.1812,-0.1812,0,-0.142,-0.1484,-0.1531,-0.1618,-0.1646,-0.1675,-0.1746,-0.1753,-0.1807,-0.179,-0.1789,-0.18,-0.1788,-0.1792,-0.1782,-0.1735,-0.1703,-0.1673,-0.1853,-0.1842,-0.1635,-0.1638,-0.1552,-0.1548,-0.1544,-0.1541,-0.1538,0,-0.1388,-0.141,-0.151,-0.1533,-0.1576,-0.1631,-0.1654,-0.1727,-0.1727,-0.1768,-0.1732,-0.1734,-0.1731,-0.1622,-0.1654,-0.1639,-0.1624,-0.1605,-0.1587,-0.1611,-0.1599,-0.1607,-0.1615,-0.1532,-0.1531,-0.153,-0.1529,0,-0.1321,-0.1373,-0.141,-0.1456,-0.1496,-0.1524,-0.1565,-0.1552,-0.1617,-0.1679,-0.1622,-0.1588,-0.1556,-0.1534,-0.152,-0.1518,-0.1607,-0.1566,-0.1574,-0.1556,-0.1585,-0.1579,-0.1591,-0.1516,-0.1518,-0.1519,-0.152,0,-0.1269,-0.1277,-0.1332,-0.1356,-0.1405,-0.1396,-0.1434,-0.1428,-0.1441,-0.1494,-0.1477,-0.1496,-0.1536,-0.1473,-0.1471,-0.1436,-0.1419,-0.1376,-0.1394,-0.1409,-0.1344,-0.1359,-0.1183,0,0,0,0,0,-0.1206,-0.1199,-0.1219,-0.1238,-0.1281,-0.1303,-0.1358,-0.1396,-0.1461,-0.1381,-0.1423,-0.1394,-0.1351,-0.1369,-0.1302,-0.141,-0.143,-0.1326,-0.1393,-0.1442,-0.1458,-0.1392,0,0,0,0,0,0,-0.1162,-0.1184,-0.1181,-0.1132,-0.112,-0.1145,-0.1177,-0.1224,-0.1188,-0.1265,-0.1249,-0.1308,-0.1291,-0.1366,-0.1272,-0.1278,-0.129,-0.1354,-0.135,-0.1434,-0.1448,-0.146,-0.1398,0,0,0,0,0]},{"header":{"parameterUnit":"m.s-1","parameterCategory":2,"la1":30.2991,"la2":30.254,"lo1":-89.0895,"lo2":-89.0444,"dy":0.0017,"dx":0.0017,"nx":28,"ny":28,"refTime":"2025-12-31T03:00:00:Z","depth":"4","parameterNumber":3,"parameterNumberName":"V-component_of_CURRENTS"},"data":[0,0,0,0,0,0,0,0,0,0,0,0,0,0,0,0,0,0,0,0,0,0,0,0,0,0,0,0,0,0,0,0,0,0,0,0,0,0,0,0,0,0,0,0,0,0,0,0,0,0,0,0,0,0,0,0,0,0,-0.0155,-0.0155,0,-0.0138,-0.0138,-0.0138,-0.012,-0.012,-0.0119,-0.0119,-0.007,-0.0068,-0.0067,0,0,0,0,0,0,0,0,0,0,0,0,0,-0.0147,-0.0148,-0.0155,-0.0155,-0.0155,-0.0138,-0.0138,-0.0138,-0.012,-0.012,-0.0119,-0.0119,-0.007,-0.0069,-0.0067,0,0,0,0,0,0,0,0,0,0,0,0,0,-0.0142,-0.0148,-0.0155,-0.0144,-0.0143,-0.0138,-0.0138,-0.0138,-0.012,-0.012,-0.0119,-0.0119,-0.007,-0.0069,-0.0067,-0.0062,0,0,-0.0062,-0.0061,0,0,0,0,0,0,0,0,-0.0142,-0.0142,-0.0146,-0.0145,-0.0144,-0.0131,-0.0117,-0.0111,-0.012,-0.0128,-0.0119,-0.0119,-0.0088,-0.0085,-0.0082,-0.006,-0.0057,-0.0062,-0.0061,-0.006,-0.0059,0,0,0,0,0,0,0,-0.0143,-0.0143,-0.0148,-0.0146,-0.0145,-0.0132,-0.0131,-0.0116,-0.0109,-0.0127,-0.0126,-0.0125,-0.0087,-0.0083,-0.008,-0.0057,-0.0062,-0.006,-0.0059,-0.0058,-0.0057,-0.0058,0,0,0,0,0,0,-0.0148,-0.0143,-0.0148,-0.0147,-0.0143,-0.0133,-0.0132,-0.0135,-0.0109,-0.0106,-0.0126,-0.0125,-0.0086,-0.0082,-0.0078,-0.0104,-0.006,-0.0058,-0.0057,-0.0056,-0.0057,-0.0058,0,0,0,0,0,0,-0.0148,-0.0149,-0.0149,-0.0145,-0.0144,-0.0133,-0.0137,-0.0135,-0.0135,-0.0109,-0.0104,-0.0128,-0.0086,-0.0081,-0.0076,-0.01,-0.0057,-0.0056,-0.0055,-0.0056,-0.0058,-0.0133,0,0,0,0,0,0,-0.0148,-0.0149,-0.0155,-0.0146,-0.0145,-0.0155,-0.0138,-0.0135,-0.0135,-0.0133,-0.0109,-0.0104,-0.0085,-0.0079,-0.0074,-0.0097,-0.0054,-0.0054,-0.0056,-0.0057,-0.0129,-0.0137,-0.0143,0,0,0,0,0,-0.0148,-0.0159,-0.0155,-0.0156,-0.0153,-0.0155,-0.0154,-0.0144,-0.0135,-0.0141,-0.0127,-0.0105,-0.0087,-0.0078,-0.0072,-0.0095,-0.0053,-0.0055,-0.0057,-0.0126,-0.0135,-0.0143,0,0,0,0,0,0,-0.0158,-0.0158,-0.0154,-0.0164,-0.0163,-0.0153,-0.0156,-0.0149,-0.0142,-0.014,-0.0114,-0.0108,-0.0115,-0.0093,-0.0083,-0.0101,-0.0068,-0.0069,-0.0122,-0.0131,-0.0137,-0.0159,-0.0053,0,0,0,0,0,-0.0164,-0.0172,-0.0168,-0.0177,-0.0177,-0.0168,-0.0167,-0.0162,-0.0155,-0.0151,-0.0136,-0.0122,-0.012,-0.0115,-0.0105,-0.011,-0.0082,-0.0122,-0.0129,-0.0136,-0.0149,-0.0168,-0.0179,-0.0066,-0.0066,-0.0066,0,0,-0.017,-0.0171,-0.0175,-0.0179,-0.0176,-0.0191,-0.0167,-0.0172,-0.0188,-0.0146,-0.0161,-0.0144,-0.0126,-0.0138,-0.0139,-0.0123,-0.0138,-0.0138,-0.0144,-0.0155,-0.0172,-0.0183,-0.0193,-0.0067,-0.0067,-0.0067,0,0,-0.0191,-0.0188,-0.0203,-0.0208,-0.021,-0.0208,-0.0213,-0.0208,-0.0209,-0.0217,-0.02,-0.0209,-0.0184,-0.0196,-0.0194,-0.0234,-0.0176,-0.0216,-0.027,-0.0288,-0.0298,-0.0306,-0.0221,-0.0222,-0.022,-0.022,-0.0221,0,-0.0199,-0.022,-0.0208,-0.0227,-0.024,-0.0221,-0.0247,-0.0248,-0.0244,-0.0255,-0.0231,-0.0238,-0.0224,-0.026,-0.0272,-0.0255,-0.0211,-0.0239,-0.0299,-0.0307,-0.0314,-0.0226,-0.0226,-0.0224,-0.0224,-0.0223,-0.0223,0,-0.0233,-0.0253,-0.0263,-0.0284,-0.0295,-0.0313,-0.0316,-0.0326,-0.032,-0.0322,-0.0347,-0.0333,-0.0341,-0.0338,-0.0314,-0.0362,-0.0291,-0.0306,-0.028,-0.0331,-0.0233,-0.0231,-0.023,-0.0228,-0.0227,-0.0226,0,0,-0.0247,-0.0281,-0.0286,-0.0313,-0.0329,-0.0345,-0.0375,-0.0402,-0.0427,-0.0423,-0.0458,-0.0467,-0.0453,-0.0451,-0.043,-0.0445,-0.044,-0.0394,-0.0393,-0.0312,-0.0394,-0.0349,-0.0341,-0.0462,-0.0464,-0.0465,-0.0281,0,-0.028,-0.0332,-0.034,-0.0397,-0.0425,-0.0429,-0.0461,-0.0482,-0.0486,-0.051,-0.0513,-0.0529,-0.0497,-0.0498,-0.0514,-0.0467,-0.0449,-0.0483,-0.0355,-0.0349,-0.031,-0.0345,-0.0471,-0.0279,-0.0279,-0.0279,-0.0278,0,-0.0313,-0.0346,-0.0406,-0.0462,-0.0475,-0.0506,-0.0557,-0.058,-0.0606,-0.0608,-0.0628,-0.061,-0.0624,-0.0596,-0.0544,-0.0558,-0.0482,-0.0438,-0.043,-0.0372,-0.0306,-0.0233,-0.0275,-0.0275,-0.0275,-0.0275,-0.0276,0,-0.0334,-0.0395,-0.0448,-0.0466,-0.0521,-0.0554,-0.0582,-0.0614,-0.064,-0.0667,-0.0677,-0.0685,-0.0674,-0.0631,-0.0521,-0.0532,-0.0435,-0.0442,-0.0316,-0.0305,-0.0365,-0.0358,-0.0413,-0.0413,-0.0413,-0.0414,-0.0414,0,-0.0367,-0.0411,-0.0464,-0.0494,-0.0563,-0.0585,-0.0649,-0.0673,-0.0705,-0.0735,-0.0726,-0.0732,-0.0689,-0.062,-0.0531,-0.0399,-0.0436,-0.0324,-0.0285,-0.0387,-0.0386,-0.0358,-0.0354,-0.0407,-0.0408,-0.041,-0.0411,0,-0.0382,-0.0415,-0.0482,-0.055,-0.0576,-0.0622,-0.0688,-0.0727,-0.0744,-0.0779,-0.0786,-0.0759,-0.0667,-0.0574,-0.0468,-0.0394,-0.0287,-0.0224,-0.0264,-0.0228,-0.0125,-0.0127,-0.0074,-0.0071,-0.0069,-0.0067,-0.0066,0,-0.0395,-0.0429,-0.0518,-0.0561,-0.0597,-0.0663,-0.0708,-0.0747,-0.0775,-0.0784,-0.0795,-0.0723,-0.0684,-0.0468,-0.039,-0.0196,-0.0184,-0.0095,-0.0194,-0.0138,-0.0104,-0.0109,-0.0114,-0.0063,-0.0062,-0.0062,-0.0061,0,-0.0416,-0.0447,-0.05,-0.0586,-0.0648,-0.0714,-0.077,-0.0791,-0.0818,-0.0836,-0.0782,-0.0692,-0.0573,-0.0444,-0.0283,-0.0162,-0.0157,-0.0073,-0.0078,-0.017,-0.0124,-0.0093,-0.01,-0.0054,-0.0055,-0.0056,-0.0056,0,-0.0426,-0.0465,-0.0532,-0.0606,-0.0684,-0.0741,-0.0773,-0.0788,-0.0809,-0.0806,-0.0777,-0.0668,-0.0611,-0.042,-0.0283,-0.0155,-0.0142,-0.0113,-0.0116,-0.0123,-0.0221,-0.0174,-0.0092,0,0,0,0,0,-0.0431,-0.0476,-0.0548,-0.0629,-0.0703,-0.0744,-0.0806,-0.0824,-0.0842,-0.0799,-0.0786,-0.0671,-0.048,-0.0406,-0.0269,-0.0259,-0.0128,-0.0094,-0.0098,-0.0014,-0.0022,-0.0131,0,0,0,0,0,0,-0.0438,-0.0503,-0.0542,-0.0626,-0.0679,-0.0755,-0.0793,-0.0806,-0.0775,-0.0772,-0.0669,-0.0627,-0.0442,-0.0549,-0.026,-0.0226,-0.0207,-0.0011,-0.0008,-0.0009,-0.0017,-0.0023,-0.0138,0,0,0,0,0]}]]